Weather Roundup
Issued by NWS Springfield, MO

Home | Current Version | Previous Version | Text Only | Print | Product List | Glossary On
Versions: 1 2 3 4 5 6 7 8 9 10 11 12 13 14 15 16 17 18 19 20 21 22 23 24 25 26 27 28 29 30 31 32 33 34 35 36 37 38 39 40 41 42 43 44 45 46 47 48 49 50
000
NZUS99 KSGF 011207
HRRSGF

HOURLY WEATHER
NATIONAL WEATHER SERVICE SPRINGFIELD MO
700 AM CDT MON SEP 01 2014

......SGF CWA......

CITY           SKY/WX    TMP DP  RH WIND       PRES   REMARKS
SPRINGFIELD    LGT RAIN  65  62  90 E10       29.99S
6HR MIN TEMP:  64; 6HR MAX TEMP:  77; 6HR PCP:  0.50;

JOPLIN         CLOUDY    65  63  93 E10       29.96S
6HR MIN TEMP:  63; 6HR MAX TEMP:  80; 6HR PCP:  0.93;

WEST PLAINS    PTCLDY    72  69  90 S6        30.02R
6HR MIN TEMP:  71; 6HR MAX TEMP:  74;

ROLLA          RAIN      65  63  93 W9        30.00S
6HR MIN TEMP:  65; 6HR MAX TEMP:  75; 6HR PCP:  0.24;

OSAGE BEACH    CLOUDY    66  63  88 SE7       29.94F
BRANSON        CLOUDY    64  63  94 NE7       30.04S

......SURROUNDING SGF CWA......

CITY           SKY/WX    TMP DP  RH WIND       PRES   REMARKS
CHANUTE        TSTM      65  63  93 E15       29.92F FOG
PARSONS        CLOUDY    67  63  87 VRB3      29.96R
COFFEYVILLE    CLOUDY    67  63  87 SE10      29.93S
EMPORIA        CLOUDY    63  63 100 S9        29.86R
GROVE OK       RAIN      66  66 100 E5        30.00R
ROGERS AR      LGT RAIN  64  62  93 E12       30.03F
HARRISON AR    LGT RAIN  66  64  93 N14G26    30.05R
NEAR YELLVILLE MOCLDY    72  66  83 NW3       30.01R

......KANSAS AND MISSOURI......

CITY           SKY/WX    TMP DP  RH WIND       PRES   REMARKS
KANSAS CTY INT CLOUDY    65  62  90 SW12      29.83R
DOWNTOWN KC    CLOUDY    68  63  84 SW13      29.82R
COLUMBIA       LGT RAIN  66  64  93 SE16      29.85F
SEDALIA        LGT RAIN  67  63  87 SE25G31   29.75F
ST JOSEPH      CLOUDY    67  64  90 SW10      29.82R
ST LOUIS       CLOUDY    77  71  82 SW12      29.91R
SPIRIT OF STL  CLOUDY    75  69  81 W14G29    29.92R
KIRKSVILLE     CLOUDY    66  63  90 W6        29.76R
WICHITA        MOCLDY    68  60  75 SE14      29.87R
TOPEKA         CLOUDY    68  65  90 S10       29.84R
OLATHE         CLOUDY    64  63  96 S13G22    29.83R

......TENNESSEE......

CITY           SKY/WX    TMP DP  RH WIND       PRES   REMARKS
MEMPHIS        CLOUDY    78  74  87 SW10      30.04R
NASHVILLE      PTCLDY    74  72  93 S9        30.07S

......ARKANSAS.......

CITY           SKY/WX    TMP DP  RH WIND       PRES   REMARKS
FAYETTEVILLE   CLOUDY    71  64  78 VRB5      30.02R
FT SMITH       CLOUDY    77  69  76 SE5       29.96R
LITTLE ROCK    CLOUDY    76  72  87 S13       29.98R

......OKLAHOMA.......

CITY           SKY/WX    TMP DP  RH WIND       PRES   REMARKS
TULSA          TSTM      68  65  90 E15G23    29.91R
PONCA CITY     PTCLDY    70  61  73 E21G30    29.86S
MCALESTER      PTCLDY    76  71  85 S12G24    29.88S
OKLAHOMA CITY  PTCLDY    78  69  73 S21G29    29.80S

......IOWA............

CITY           SKY/WX    TMP DP  RH WIND       PRES   REMARKS
DES MOINES     CLOUDY    70  63  78 SW15      29.74R
QUAD CITIES    CLOUDY    67  64  90 W6        29.76R

......ILLINOIS........

CITY           SKY/WX    TMP DP  RH WIND       PRES   REMARKS
QUINCY         LGT RAIN  67  64  90 S14       29.77F
CHICAGO        CLOUDY    74  68  81 S12       29.76F



USA.gov is the U.S. government's official web portal to all federal, state and local government web resources and services.